OK1FET-6 Weather Reports


time (UTC)temp
C
wind
direction
speed
KPH
gust
KPH
rain 1hr
cm
rain 24hr
cm
rain mn
cm
humidity
%
barometer
mb
20260905223303 15 295 6.4 19.3 0.00 0.38 0.00 49 1023.4
20260905222306 15 303 6.4 12.9 0.00 0.38 0.00 49 1023.3
20260905221306 15 281 8.0 20.9 0.00 0.38 0.00 48 1023.3
20260905220309 15 306 8.0 16.1 0.00 0.38 0.00 48 1023.3
20260905215309 15 273 6.4 16.1 0.00 0.38 0.00 47 1023.2
20260905214311 15 290 4.8 17.7 0.00 0.38 0.00 47 1023.3
20260905213313 15 299 6.4 12.9 0.00 0.38 0.00 47 1023.2
20260905212315 15 290 4.8 11.3 0.00 0.38 0.00 46 1023.1
20260905211316 16 298 6.4 17.7 0.00 0.38 0.00 46 1023.0
20260905210318 16 288 6.4 14.5 0.00 0.38 0.00 46 1022.9
20260905205320 16 237 3.2 16.1 0.00 0.38 0.00 46 1022.7
20260905204322 16 260 3.2 11.3 0.00 0.38 0.00 46 1022.7
20260905203324 16 261 4.8 11.3 0.00 0.38 0.00 45 1022.5
20260905202325 16 250 3.2 16.1 0.00 0.38 0.00 45 1022.4
20260905201327 16 249 8.0 19.3 0.00 0.38 0.00 45 1022.3
20260905195331 16 261 4.8 12.9 0.00 0.38 0.00 44 1022.0
20260905194333 17 264 3.2 11.3 0.00 0.38 0.00 44 1021.9
20260905193333 17 307 9.7 20.9 0.00 0.38 0.00 44 1021.8
20260905192333 17 300 4.8 16.1 0.00 0.38 0.00 43 1021.6
20260905190336 17 298 6.4 17.7 0.00 0.38 0.00 43 1021.5
20260905184340 17 319 8.0 27.4 0.00 0.38 0.00 42 1021.2
20260905182344 18 309 9.7 22.5 0.00 0.38 0.00 41 1021.1
20260905181345 18 293 11.3 22.5 0.00 0.38 0.00 40 1020.9
20260905180347 18 311 11.3 17.7 0.00 0.38 0.00 39 1020.8
20260905175349 18 302 8.0 20.9 0.00 0.38 0.00 39 1020.5
20260905174351 19 306 9.7 20.9 0.00 0.38 0.00 38 1020.4
20260905173353 20 297 8.0 22.5 0.00 0.38 0.00 38 1020.2
20260905172355 20 283 8.0 17.7 0.00 0.38 0.00 37 1020.1
20260905170357 21 329 8.0 20.9 0.00 0.38 0.00 36 1019.7
20260905165359 21 316 9.7 22.5 0.00 0.38 0.00 35 1019.7
20260905164401 22 2 9.7 25.7 0.00 0.38 0.00 35 1019.5
20260905163404 22 323 9.7 27.4 0.00 0.38 0.00 34 1019.4
20260905162402 23 323 9.7 19.3 0.00 0.38 0.00 34 1019.3
20260905161404 24 312 11.3 25.7 0.00 0.38 0.00 33 1019.1
20260905160406 25 306 11.3 27.4 0.00 0.38 0.00 32 1019.1
20260905155408 26 320 11.3 41.8 0.00 0.38 0.00 31 1018.9
20260905154410 27 315 12.9 25.7 0.00 0.38 0.00 30 1018.9
20260905153412 30 322 8.0 20.9 0.00 0.38 0.00 28 1018.9
20260905152413 32 333 6.4 17.7 0.00 0.38 0.00 26 1018.9
20260905151413 34 356 9.7 29.0 0.00 0.38 0.00 25 1018.9
20260905150412 35 326 11.3 25.7 0.00 0.38 0.00 25 1018.9
20260905145414 35 307 12.9 25.7 0.00 0.38 0.00 25 1018.8
20260905144416 35 287 9.7 17.7 0.00 0.38 0.00 24 1018.9
20260905143416 35 337 9.7 25.7 0.00 0.38 0.00 25 1018.9
20260905142418 34 283 16.1 33.8 0.00 0.38 0.00 25 1018.9
20260905141420 36 305 14.5 29.0 0.00 0.38 0.00 24 1018.8
20260905140422 36 321 19.3 33.8 0.00 0.38 0.00 24 1018.9
20260905135423 38 299 14.5 41.8 0.00 0.38 0.00 24 1019.0
20260905134425 40 318 14.5 32.2 0.00 0.38 0.00 24 1019.1
20260905133427 39 288 9.7 27.4 0.00 0.38 0.00 24 1019.1
20260905132429 40 283 16.1 38.6 0.00 0.38 0.00 24 1019.1
20260905131429 40 304 14.5 32.2 0.00 0.38 0.00 24 1019.1
20260905130429 38 289 14.5 27.4 0.00 0.38 0.00 25 1019.2
20260905125431 36 313 16.1 33.8 0.00 0.38 0.00 27 1019.3
20260905124432 33 310 16.1 30.6 0.00 0.38 0.00 29 1019.2
20260905123434 30 303 12.9 29.0 0.00 0.38 0.00 33 1019.3
20260905122436 30 335 12.9 33.8 0.00 0.38 0.00 34 1019.4
20260905121438 32 296 17.7 48.3 0.00 0.38 0.00 32 1019.4
20260905115441 32 303 17.7 35.4 0.00 0.38 0.00 34 1019.6
20260905114443 32 296 16.1 29.0 0.00 0.38 0.00 37 1019.5
20260905113445 33 313 14.5 29.0 0.00 0.38 0.00 39 1019.6
20260905112447 35 321 9.7 29.0 0.00 0.38 0.00 41 1019.7
20260905111449 36 320 12.9 25.7 0.00 0.38 0.00 41 1019.8
20260905110451 38 286 12.9 25.7 0.00 0.38 0.00 44 1019.8
20260905105452 37 297 12.9 29.0 0.00 0.38 0.00 51 1019.7
20260905104454 33 304 12.9 22.5 0.00 0.38 0.00 61 1019.7
20260905103455 32 306 11.3 19.3 0.00 0.38 0.00 66 1019.9
20260905102457 30 287 9.7 29.0 0.00 0.38 0.00 69 1019.7
20260905101459 29 294 11.3 27.4 0.00 0.38 0.00 67 1019.7
20260905100501 28 267 11.3 24.1 0.00 0.38 0.00 65 1019.8
20260905095502 31 265 14.5 25.7 0.00 0.38 0.00 61 1019.8
20260905094504 31 274 14.5 37.0 0.00 0.38 0.00 65 1019.7
20260905093506 28 302 9.7 19.3 0.00 0.38 0.00 69 1019.7
20260905092508 28 282 11.3 22.5 0.00 0.38 0.00 64 1019.8
20260905091510 30 282 11.3 25.7 0.00 0.38 0.00 65 1020.0
20260905090510 30 272 8.0 17.7 0.00 0.38 0.00 68 1019.9
20260905084513 30 303 9.7 20.9 0.00 0.38 0.00 63 1019.7
20260905083513 31 299 9.7 19.3 0.00 0.38 0.00 63 1019.9
20260905082516 30 274 8.0 16.1 0.00 0.38 0.00 66 1019.8
20260905081517 28 279 9.7 20.9 0.00 0.38 0.00 68 1019.7
20260905080519 26 264 9.7 29.0 0.00 0.38 0.00 70 1019.6
20260905075521 25 282 8.0 22.5 0.00 0.38 0.00 72 1019.4
20260905074522 23 278 16.1 27.4 0.00 0.38 0.00 74 1019.3
20260905073524 21 271 17.7 38.6 0.00 0.38 0.00 76 1019.2
20260905072526 20 288 8.0 22.5 0.00 0.38 0.00 79 1019.0
20260905071527 18 251 14.5 35.4 0.00 0.38 0.00 80 1018.9
20260905070529 16 262 16.1 29.0 0.00 0.38 0.00 82 1018.9
20260905065531 15 263 17.7 46.7 0.00 0.38 0.00 82 1018.9
20260905064533 15 273 20.9 41.8 0.00 0.38 0.00 83 1018.9
20260905063535 14 265 14.5 40.2 0.00 0.38 0.00 83 1018.9
20260905061538 14 277 8.0 16.1 0.00 0.38 0.00 82 1018.8
20260905060540 13 263 9.7 25.7 0.00 0.38 0.00 81 1018.6
20260905055542 13 254 8.0 17.7 0.00 0.38 0.00 81 1018.5
20260905054543 13 267 8.0 16.1 0.00 0.38 0.00 80 1018.3
20260905053543 13 272 8.0 16.1 0.00 0.38 0.00 80 1018.1
20260905052542 13 259 6.4 17.7 0.05 0.38 0.00 79 1018.0
20260905051544 13 278 6.4 19.3 0.05 0.38 0.00 79 1018.0
20260905050545 14 261 6.4 17.7 0.05 0.38 0.00 78 1017.7
20260905045546 14 226 3.2 12.9 0.10 0.38 0.00 77 1017.6
20260905044548 14 244 3.2 17.7 0.15 0.38 0.00 77 1017.4
20260905043550 14 177 0.0 3.2 0.15 0.38 0.00 76 1017.3
20260905042554 14 290 1.6 8.0 0.23 0.33 0.00 75 1017.3
20260905041555 14 0 3.2 12.9 0.28 0.33 0.00 75 1017.0
20260905040556 14 68 1.6 9.7 0.28 0.33 0.00 74 1016.6
20260905035612 14 234 3.2 12.9 0.28 0.28 0.00 72 1016.6
20260905034630 14 249 4.8 12.9 0.23 0.23 0.00 71 1016.7
20260905033632 14 268 6.4 17.7 0.23 0.23 0.00 69 1017.0
20260905032701 15 258 6.4 14.5 0.10 0.10 0.00 66 1017.1
20260905031714 15 269 6.4 16.1 0.05 0.05 0.00 64 1017.1
20260905030716 15 286 9.7 25.7 0.05 0.05 0.00 64 1017.0
20260905025721 15 271 17.7 33.8 0.00 0.00 0.00 63 1017.0
20260905024723 15 277 11.3 29.0 0.00 0.00 0.00 62 1016.7
20260905023724 15 294 11.3 24.1 0.00 0.00 0.00 62 1016.3
20260905022726 15 280 9.7 25.7 0.00 0.00 0.00 61 1016.2
20260905021729 15 271 8.0 22.5 0.00 0.00 0.00 61 1016.1
20260905020730 16 283 8.0 19.3 0.00 0.00 0.00 60 1015.8
20260905015731 16 272 11.3 29.0 0.00 0.00 0.00 60 1016.2
20260905014733 16 264 11.3 27.4 0.00 0.00 0.00 58 1016.0
20260905013734 17 305 12.9 33.8 0.00 0.00 0.00 57 1015.8
20260905012736 17 284 6.4 16.1 0.00 0.00 0.00 56 1015.5
20260905011738 18 299 12.9 32.2 0.00 0.00 0.00 55 1015.3
20260905010740 18 314 11.3 35.4 0.00 0.00 0.00 55 1015.5
20260905005742 18 288 6.4 14.5 0.00 0.00 0.00 55 1015.3
20260905004744 18 282 9.7 22.5 0.00 0.00 0.00 55 1015.5
20260905004002 18 302 11.3 19.3 0.00 0.00 0.00 55 1015.1
20260905003746 18 302 11.3 19.3 0.00 0.00 0.00 55 1015.1
20260905002747 19 266 6.4 38.6 0.00 0.00 0.00 55 1015.2
20260905001750 19 302 11.3 32.2 0.00 0.00 0.00 55 1015.0
20260905000748 19 279 14.5 24.1 0.00 0.00 0.00 55 1015.1
20260904235750 19 226 8.0 19.3 0.00 0.00 0.00 56 1014.9
20260904234752 19 343 14.5 35.4 0.00 0.00 0.00 56 1014.9
20260904233754 19 359 12.9 38.6 0.00 0.00 0.00 56 1015.0
20260904232755 19 346 11.3 32.2 0.00 0.00 0.00 56 1014.9
20260904231757 18 307 6.4 16.1 0.00 0.00 0.00 56 1014.8
20260904230759 18 31 9.7 29.0 0.00 0.00 0.00 56 1014.6
20260904225801 18 137 0.0 4.8 0.00 0.00 0.00 55 1014.2
20260904224803 18 54 3.2 14.5 0.00 0.00 0.00 56 1014.4
20260904223805 18 68 6.4 20.9 0.00 0.00 0.00 56 1013.6